QPF
0.04 0.03 0.04 0.03 0.01 0.01 0.02 0.02 0.03 0.05 0.04 0.05 0.03 0.02 0.02 0.03 0.03 0.03 0.02 0.01 0.02 0.02 0.03 0.03 0.04 0.04 0.04 0.04 0.05 0.07 0.07 0.06 0.05 0.05 0.05 0.04 0.02 0.02 0.03 0.04 0.04 0.04 0.04
0.05 0.04 0.04 0.04 0.03 0.02 0.02 0.03 0.04 0.04 0.03 0.04 0.03 0.03 0.02 0.02 0.03 0.03 0.03 0.01 0.01 0.01 0.02 0.03 0.03 0.03 0.05 0.04 0.05 0.07 0.06 0.05 0.05 0.06 0.09 0.07 0.05 0.03 0.02 0.03 0.04 0.05 0.05
0.02 0.04 0.05 0.04 0.03 0.03 0.03 0.03 0.04 0.04 0.03 0.03 0.03 0.03 0.03 0.02 0.03 0.04 0.04 0.02 0.01 0.01 0.02 0.02 0.03 0.03 0.04 0.04 0.04 0.04 0.04 0.05 0.05 0.05 0.07 0.09 0.07 0.05 0.03 0.02 0.04 0.06 0.05
0.02 0.01 0.03 0.04 0.04 0.03 0.04 0.04 0.04 0.04 0.03 0.02 0.03 0.03 0.04 0.03 0.03 0.03 0.03 0.02 0.01 0.01 0.01 0.01 0.02 0.03 0.03 0.04 0.03 0.04 0.03 0.04 0.04 0.04 0.05 0.06 0.07 0.07 0.05 0.03 0.05 0.07 0.05
0.01 0.01 0.02 0.02 0.03 0.03 0.04 0.05 0.05 0.05 0.05 0.05 0.05 0.05 0.04 0.05 0.04 0.03 0.04 0.03 0.02 0.01 0.01 0.01 0.02 0.02 0.03 0.03 0.03 0.04 0.03 0.04 0.04 0.05 0.05 0.05 0.06 0.06 0.07 0.06 0.07 0.07 0.05
0.00 0.00 0.01 0.02 0.04 0.02 0.03 0.04 0.05 0.06 0.06 0.06 0.06 0.05 0.04 0.06 0.07 0.06 0.05 0.03 0.02 0.02 0.01 0.01 0.01 0.02 0.02 0.02 0.02 0.02 0.03 0.04 0.04 0.04 0.04 0.05 0.07 0.07 0.07 0.07 0.08 0.07 0.05
0.00 0.00 0.00 0.01 0.02 0.03 0.02 0.03 0.04 0.05 0.06 0.07 0.06 0.05 0.04 0.04 0.06 0.05 0.05 0.04 0.03 0.03 0.02 0.02 0.02 0.03 0.02 0.02 0.02 0.03 0.04 0.04 0.04 0.03 0.04 0.04 0.04 0.06 0.05 0.06 0.06 0.07 0.05
0.00 0.00 0.00 0.01 0.01 0.02 0.02 0.02 0.03 0.03 0.04 0.04 0.05 0.05 0.04 0.03 0.05 0.06 0.04 0.04 0.04 0.03 0.03 0.03 0.03 0.03 0.02 0.02 0.03 0.02 0.03 0.04 0.04 0.03 0.04 0.03 0.04 0.05 0.04 0.04 0.05 0.06 0.06
0.00 0.00 0.00 0.01 0.01 0.03 0.03 0.03 0.03 0.03 0.03 0.03 0.03 0.04 0.05 0.05 0.06 0.08 0.07 0.04 0.04 0.04 0.05 0.05 0.03 0.03 0.02 0.02 0.03 0.02 0.03 0.04 0.04 0.03 0.03 0.03 0.04 0.04 0.03 0.02 0.03 0.06 0.06
0.03 0.01 0.02 0.01 0.01 0.03 0.04 0.04 0.03 0.02 0.02 0.02 0.02 0.03 0.05 0.06 0.07 0.08 0.09 0.07 0.06 0.06 0.07 0.07 0.05 0.04 0.03 0.02 0.02 0.03 0.02 0.03 0.04 0.04 0.04 0.03 0.02 0.02 0.02 0.02 0.03 0.03 0.05
0.04 0.02 0.02 0.01 0.02 0.03 0.03 0.04 0.02 0.02 0.01 0.01 0.02 0.02 0.04 0.05 0.06 0.07 0.08 0.08 0.06 0.07 0.08 0.08 0.07 0.07 0.06 0.05 0.05 0.04 0.03 0.03 0.04 0.05 0.04 0.03 0.03 0.04 0.03 0.02 0.03 0.03 0.04
0.02 0.01 0.01 0.02 0.02 0.03 0.03 0.04 0.03 0.02 0.02 0.02 0.02 0.03 0.04 0.05 0.05 0.06 0.06 0.07 0.07 0.07 0.08 0.08 0.08 0.07 0.06 0.06 0.05 0.05 0.04 0.06 0.08 0.06 0.06 0.04 0.05 0.07 0.05 0.04 0.04 0.04 0.05
0.01 0.01 0.01 0.03 0.02 0.02 0.03 0.03 0.03 0.03 0.03 0.03 0.03 0.04 0.04 0.05 0.05 0.05 0.06 0.07 0.07 0.07 0.08 0.08 0.08 0.07 0.07 0.07 0.07 0.06 0.06 0.06 0.05 0.05 0.05 0.05 0.07 0.07 0.06 0.05 0.05 0.05 0.04
0.01 0.02 0.02 0.03 0.04 0.04 0.05 0.05 0.05 0.04 0.03 0.03 0.04 0.05 0.06 0.05 0.04 0.04 0.05 0.06 0.07 0.07 0.09 0.09 0.07 0.07 0.07 0.08 0.07 0.05 0.04 0.04 0.04 0.04 0.04 0.04 0.06 0.07 0.06 0.05 0.05 0.05 0.05
0.03 0.02 0.02 0.03 0.03 0.05 0.08 0.09 0.07 0.05 0.04 0.04 0.03 0.04 0.06 0.06 0.05 0.05 0.06 0.06 0.06 0.07 0.09 0.08 0.06 0.06 0.05 0.04 0.04 0.04 0.04 0.04 0.04 0.04 0.03 0.04 0.05 0.05 0.04 0.03 0.04 0.05 0.05
0.03 0.02 0.01 0.02 0.02 0.03 0.05 0.07 0.08 0.06 0.05 0.05 0.05 0.04 0.05 0.06 0.07 0.08 0.09 0.07 0.07 0.06 0.07 0.07 0.05 0.04 0.03 0.03 0.02 0.03 0.04 0.05 0.04 0.03 0.04 0.05 0.05 0.03 0.02 0.01 0.02 0.02 0.04
0.04 0.02 0.02 0.02 0.02 0.04 0.05 0.05 0.04 0.04 0.05 0.05 0.04 0.04 0.05 0.05 0.07 0.06 0.07 0.07 0.07 0.07 0.07 0.07 0.05 0.05 0.04 0.03 0.02 0.02 0.02 0.04 0.05 0.04 0.04 0.02 0.02 0.03 0.02 0.01 0.01 0.01 0.02
0.06 0.03 0.03 0.03 0.04 0.05 0.06 0.06 0.06 0.05 0.04 0.04 0.03 0.03 0.03 0.04 0.05 0.06 0.07 0.07 0.08 0.08 0.08 0.07 0.05 0.05 0.05 0.05 0.04 0.03 0.03 0.03 0.04 0.04 0.04 0.03 0.03 0.03 0.03 0.02 0.02 0.02 0.02
0.09 0.10 0.09 0.06 0.05 0.06 0.05 0.06 0.07 0.06 0.04 0.03 0.03 0.02 0.02 0.02 0.04 0.05 0.06 0.08 0.09 0.08 0.08 0.07 0.06 0.05 0.06 0.05 0.04 0.04 0.04 0.04 0.03 0.03 0.03 0.02 0.03 0.03 0.02 0.03 0.02 0.01 0.02
0.10 0.12 0.11 0.08 0.07 0.07 0.07 0.07 0.07 0.06 0.05 0.04 0.04 0.03 0.02 0.02 0.03 0.03 0.05 0.07 0.09 0.09 0.09 0.08 0.07 0.06 0.06 0.05 0.03 0.03 0.03 0.03 0.03 0.04 0.03 0.03 0.02 0.02 0.01 0.02 0.03 0.02 0.02
0.09 0.09 0.10 0.11 0.10 0.09 0.10 0.09 0.08 0.07 0.05 0.03 0.03 0.06 0.04 0.03 0.02 0.02 0.03 0.05 0.07 0.07 0.06 0.07 0.06 0.06 0.05 0.04 0.02 0.02 0.02 0.02 0.03 0.03 0.03 0.04 0.02 0.01 0.01 0.01 0.02 0.03 0.03
0.05 0.06 0.07 0.10 0.11 0.11 0.13 0.11 0.09 0.08 0.06 0.06 0.07 0.06 0.05 0.03 0.03 0.03 0.04 0.05 0.06 0.06 0.05 0.06 0.06 0.05 0.05 0.04 0.02 0.02 0.02 0.02 0.03 0.03 0.04 0.03 0.03 0.02 0.02 0.01 0.01 0.02 0.03
0.03 0.05 0.06 0.08 0.08 0.10 0.14 0.14 0.12 0.08 0.06 0.07 0.09 0.08 0.05 0.05 0.05 0.04 0.04 0.05 0.07 0.07 0.05 0.04 0.05 0.05 0.05 0.04 0.03 0.03 0.02 0.02 0.02 0.03 0.03 0.03 0.04 0.02 0.02 0.01 0.01 0.01 0.02
0.05 0.05 0.06 0.06 0.06 0.07 0.07 0.09 0.11 0.09 0.07 0.07 0.08 0.08 0.06 0.06 0.06 0.07 0.06 0.07 0.07 0.08 0.07 0.06 0.06 0.05 0.05 0.05 0.03 0.04 0.02 0.02 0.02 0.02 0.02 0.02 0.02 0.02 0.01 0.01 0.01 0.02 0.02
0.06 0.07 0.07 0.07 0.06 0.04 0.04 0.05 0.06 0.07 0.08 0.07 0.06 0.06 0.06 0.06 0.07 0.07 0.07 0.08 0.08 0.09 0.08 0.08 0.07 0.06 0.06 0.05 0.04 0.03 0.03 0.02 0.01 0.01 0.02 0.02 0.03 0.03 0.03 0.02 0.02 0.02 0.03
0.04 0.07 0.07 0.07 0.06 0.05 0.04 0.04 0.04 0.05 0.06 0.06 0.05 0.06 0.06 0.06 0.07 0.08 0.08 0.08 0.08 0.07 0.07 0.07 0.08 0.08 0.06 0.04 0.04 0.04 0.03 0.03 0.03 0.02 0.01 0.02 0.04 0.04 0.03 0.03 0.02 0.02 0.03
MSLP
1003.77 1004.65 1005.47 1006.17 1006.75 1007.22 1007.62 1008.00 1008.39 1008.81 1009.26 1009.72 1010.14 1010.47 1010.69 1010.77 1010.72 1010.58 1010.39 1010.20 1010.07 1010.02 1010.09 1010.25 1010.48 1010.75 1011.02 1011.28 1011.51 1011.72 1011.93 1012.14 1012.39 1012.67 1012.98 1013.30 1013.59 1013.85 1014.04 1014.16 1014.22 1014.25 1014.27
1003.63 1004.59 1005.48 1006.24 1006.86 1007.35 1007.76 1008.13 1008.52 1008.94 1009.41 1009.89 1010.34 1010.71 1010.96 1011.06 1011.02 1010.88 1010.69 1010.50 1010.37 1010.34 1010.41 1010.60 1010.84 1011.12 1011.40 1011.63 1011.83 1011.98 1012.13 1012.28 1012.48 1012.72 1013.02 1013.35 1013.69 1013.99 1014.24 1014.43 1014.54 1014.59 1014.61
1003.30 1004.35 1005.34 1006.20 1006.89 1007.43 1007.85 1008.23 1008.60 1009.01 1009.46 1009.93 1010.39 1010.77 1011.05 1011.19 1011.19 1011.09 1010.93 1010.78 1010.69 1010.69 1010.79 1010.99 1011.25 1011.52 1011.77 1011.97 1012.11 1012.20 1012.28 1012.37 1012.51 1012.73 1013.02 1013.37 1013.74 1014.11 1014.42 1014.66 1014.82 1014.90 1014.91
1002.72 1003.89 1005.01 1005.99 1006.79 1007.41 1007.88 1008.27 1008.63 1009.01 1009.43 1009.88 1010.33 1010.73 1011.04 1011.22 1011.29 1011.26 1011.18 1011.09 1011.06 1011.10 1011.24 1011.45 1011.71 1011.96 1012.18 1012.33 1012.42 1012.45 1012.46 1012.49 1012.59 1012.77 1013.05 1013.40 1013.80 1014.21 1014.58 1014.86 1015.05 1015.14 1015.14
1001.93 1003.22 1004.48 1005.61 1006.55 1007.27 1007.82 1008.24 1008.61 1008.97 1009.37 1009.79 1010.23 1010.64 1010.99 1011.24 1011.38 1011.44 1011.45 1011.45 1011.48 1011.58 1011.74 1011.96 1012.21 1012.44 1012.63 1012.74 1012.77 1012.76 1012.72 1012.70 1012.75 1012.90 1013.15 1013.50 1013.90 1014.32 1014.70 1015.01 1015.21 1015.30 1015.29
1001.03 1002.41 1003.81 1005.08 1006.16 1007.01 1007.66 1008.15 1008.54 1008.91 1009.30 1009.72 1010.15 1010.58 1010.96 1011.28 1011.51 1011.66 1011.76 1011.84 1011.94 1012.07 1012.25 1012.48 1012.71 1012.92 1013.08 1013.16 1013.17 1013.12 1013.05 1013.01 1013.02 1013.13 1013.35 1013.66 1014.04 1014.44 1014.81 1015.10 1015.30 1015.38 1015.36
1000.14 1001.58 1003.06 1004.46 1005.67 1006.66 1007.42 1008.00 1008.45 1008.86 1009.26 1009.67 1010.12 1010.57 1010.99 1011.36 1011.66 1011.90 1012.07 1012.22 1012.36 1012.53 1012.72 1012.93 1013.15 1013.34 1013.48 1013.56 1013.57 1013.52 1013.45 1013.39 1013.38 1013.46 1013.63 1013.89 1014.21 1014.55 1014.88 1015.15 1015.32 1015.39 1015.36
999.40 1000.82 1002.33 1003.80 1005.12 1006.23 1007.11 1007.80 1008.34 1008.80 1009.24 1009.68 1010.14 1010.61 1011.07 1011.48 1011.84 1012.12 1012.35 1012.54 1012.71 1012.88 1013.07 1013.27 1013.47 1013.65 1013.80 1013.89 1013.92 1013.90 1013.84 1013.80 1013.78 1013.83 1013.95 1014.14 1014.39 1014.67 1014.94 1015.16 1015.30 1015.36 1015.33
998.93 1000.24 1001.71 1003.18 1004.56 1005.75 1006.74 1007.54 1008.19 1008.73 1009.23 1009.71 1010.20 1010.69 1011.17 1011.61 1011.99 1012.30 1012.55 1012.76 1012.93 1013.10 1013.27 1013.46 1013.65 1013.83 1013.99 1014.11 1014.18 1014.21 1014.20 1014.18 1014.17 1014.20 1014.27 1014.40 1014.57 1014.77 1014.97 1015.15 1015.27 1015.33 1015.31
998.78 999.90 1001.23 1002.64 1004.01 1005.26 1006.34 1007.24 1008.00 1008.64 1009.21 1009.75 1010.27 1010.78 1011.26 1011.71 1012.09 1012.41 1012.66 1012.86 1013.03 1013.18 1013.33 1013.50 1013.69 1013.88 1014.07 1014.23 1014.36 1014.44 1014.49 1014.51 1014.51 1014.52 1014.55 1014.62 1014.72 1014.85 1014.99 1015.12 1015.23 1015.30 1015.31
998.92 999.80 1000.93 1002.20 1003.51 1004.76 1005.90 1006.90 1007.75 1008.50 1009.16 1009.76 1010.32 1010.84 1011.33 1011.76 1012.13 1012.44 1012.68 1012.87 1013.02 1013.16 1013.30 1013.47 1013.65 1013.86 1014.08 1014.28 1014.46 1014.60 1014.69 1014.74 1014.76 1014.76 1014.76 1014.78 1014.82 1014.89 1014.98 1015.09 1015.19 1015.28 1015.33
999.27 999.86 1000.74 1001.84 1003.04 1004.26 1005.43 1006.51 1007.46 1008.31 1009.06 1009.72 1010.32 1010.87 1011.35 1011.78 1012.14 1012.43 1012.66 1012.84 1012.99 1013.12 1013.27 1013.43 1013.63 1013.85 1014.09 1014.32 1014.53 1014.71 1014.83 1014.90 1014.92 1014.91 1014.89 1014.86 1014.86 1014.88 1014.94 1015.03 1015.14 1015.25 1015.34
999.69 999.99 1000.63 1001.53 1002.61 1003.78 1004.96 1006.09 1007.13 1008.07 1008.90 1009.64 1010.29 1010.85 1011.35 1011.77 1012.12 1012.41 1012.64 1012.83 1012.99 1013.14 1013.30 1013.48 1013.68 1013.91 1014.15 1014.39 1014.61 1014.79 1014.92 1014.98 1015.00 1014.97 1014.92 1014.87 1014.84 1014.83 1014.87 1014.96 1015.07 1015.20 1015.32
1000.06 1000.11 1000.52 1001.24 1002.20 1003.30 1004.48 1005.65 1006.77 1007.80 1008.71 1009.51 1010.21 1010.80 1011.31 1011.74 1012.11 1012.41 1012.66 1012.88 1013.07 1013.26 1013.44 1013.64 1013.85 1014.08 1014.31 1014.53 1014.72 1014.87 1014.97 1015.02 1015.01 1014.96 1014.89 1014.82 1014.76 1014.74 1014.77 1014.85 1014.96 1015.10 1015.24
1000.27 1000.14 1000.37 1000.94 1001.79 1002.85 1004.02 1005.23 1006.40 1007.50 1008.48 1009.35 1010.09 1010.72 1011.25 1011.71 1012.09 1012.43 1012.72 1012.99 1013.23 1013.46 1013.68 1013.90 1014.12 1014.33 1014.53 1014.71 1014.85 1014.96 1015.01 1015.01 1014.97 1014.90 1014.81 1014.72 1014.66 1014.63 1014.66 1014.72 1014.83 1014.96 1015.10
1000.27 1000.03 1000.16 1000.63 1001.41 1002.42 1003.59 1004.82 1006.04 1007.19 1008.23 1009.15 1009.93 1010.60 1011.16 1011.65 1012.07 1012.45 1012.80 1013.12 1013.42 1013.70 1013.97 1014.21 1014.43 1014.62 1014.78 1014.90 1014.98 1015.02 1015.02 1014.98 1014.91 1014.81 1014.72 1014.63 1014.57 1014.54 1014.55 1014.60 1014.69 1014.79 1014.90
1000.09 999.82 999.90 1000.32 1001.06 1002.05 1003.21 1004.45 1005.70 1006.88 1007.96 1008.91 1009.72 1010.42 1011.02 1011.53 1012.00 1012.43 1012.83 1013.21 1013.57 1013.91 1014.21 1014.47 1014.68 1014.85 1014.97 1015.04 1015.06 1015.04 1015.00 1014.92 1014.83 1014.73 1014.64 1014.56 1014.51 1014.48 1014.48 1014.51 1014.56 1014.61 1014.67
999.80 999.55 999.63 1000.05 1000.78 1001.75 1002.89 1004.13 1005.38 1006.57 1007.66 1008.62 1009.46 1010.18 1010.80 1011.35 1011.85 1012.32 1012.78 1013.21 1013.62 1013.99 1014.32 1014.59 1014.80 1014.95 1015.03 1015.06 1015.05 1014.99 1014.92 1014.83 1014.75 1014.66 1014.60 1014.54 1014.50 1014.48 1014.47 1014.46 1014.46 1014.45 1014.43
999.49 999.31 999.44 999.87 1000.58 1001.54 1002.66 1003.87 1005.09 1006.26 1007.34 1008.30 1009.14 1009.87 1010.51 1011.08 1011.61 1012.12 1012.60 1013.07 1013.51 1013.91 1014.25 1014.53 1014.74 1014.87 1014.94 1014.95 1014.92 1014.86 1014.79 1014.72 1014.66 1014.62 1014.59 1014.57 1014.55 1014.53 1014.49 1014.44 1014.38 1014.30 1014.20
999.29 999.19 999.36 999.81 1000.52 1001.44 1002.51 1003.66 1004.84 1005.97 1007.01 1007.95 1008.78 1009.51 1010.16 1010.74 1011.29 1011.82 1012.32 1012.81 1013.26 1013.67 1014.01 1014.29 1014.50 1014.63 1014.69 1014.70 1014.68 1014.65 1014.61 1014.58 1014.57 1014.58 1014.59 1014.61 1014.61 1014.58 1014.53 1014.43 1014.30 1014.14 1013.96
999.28 999.25 999.46 999.92 1000.59 1001.46 1002.46 1003.54 1004.64 1005.70 1006.69 1007.60 1008.41 1009.13 1009.78 1010.37 1010.93 1011.47 1011.97 1012.46 1012.91 1013.31 1013.66 1013.93 1014.13 1014.26 1014.34 1014.37 1014.38 1014.38 1014.39 1014.42 1014.46 1014.52 1014.58 1014.62 1014.64 1014.60 1014.52 1014.37 1014.17 1013.94 1013.69
999.51 999.54 999.77 1000.20 1000.83 1001.61 1002.52 1003.50 1004.50 1005.48 1006.41 1007.27 1008.06 1008.77 1009.42 1010.02 1010.58 1011.12 1011.62 1012.10 1012.54 1012.92 1013.25 1013.52 1013.71 1013.85 1013.95 1014.01 1014.05 1014.10 1014.16 1014.24 1014.33 1014.43 1014.52 1014.58 1014.59 1014.54 1014.42 1014.22 1013.97 1013.67 1013.36
999.98 1000.04 1000.27 1000.66 1001.21 1001.90 1002.70 1003.56 1004.45 1005.34 1006.20 1007.01 1007.76 1008.46 1009.11 1009.72 1010.29 1010.82 1011.33 1011.79 1012.21 1012.58 1012.90 1013.15 1013.34 1013.49 1013.60 1013.68 1013.76 1013.85 1013.94 1014.06 1014.18 1014.29 1014.39 1014.44 1014.44 1014.37 1014.21 1013.98 1013.68 1013.34 1012.98
1000.67 1000.74 1000.94 1001.27 1001.73 1002.31 1002.98 1003.71 1004.49 1005.28 1006.06 1006.82 1007.54 1008.23 1008.88 1009.50 1010.08 1010.62 1011.12 1011.58 1011.99 1012.35 1012.65 1012.89 1013.08 1013.24 1013.36 1013.46 1013.56 1013.66 1013.77 1013.89 1014.01 1014.12 1014.21 1014.24 1014.21 1014.11 1013.92 1013.66 1013.33 1012.97 1012.60
1001.50 1001.56 1001.72 1001.99 1002.35 1002.81 1003.35 1003.96 1004.62 1005.30 1006.00 1006.71 1007.40 1008.07 1008.72 1009.35 1009.94 1010.49 1011.00 1011.47 1011.88 1012.23 1012.53 1012.78 1012.97 1013.13 1013.26 1013.37 1013.48 1013.58 1013.68 1013.79 1013.89 1013.97 1014.02 1014.02 1013.96 1013.83 1013.63 1013.36 1013.03 1012.67 1012.29
1002.39 1002.44 1002.56 1002.76 1003.03 1003.38 1003.80 1004.29 1004.82 1005.40 1006.02 1006.66 1007.31 1007.97 1008.61 1009.25 1009.85 1010.43 1010.96 1011.44 1011.86 1012.24 1012.55 1012.81 1013.02 1013.19 1013.33 1013.44 1013.54 1013.63 1013.71 1013.79 1013.85 1013.89 1013.90 1013.87 1013.79 1013.65 1013.45 1013.19 1012.88 1012.54 1012.19
Thickness
5808 5807 5805 5802 5798 5794 5790 5787 5784 5782 5779 5775 5772 5768 5766 5766 5765 5763 5761 5758 5756 5754 5752 5751 5750 5748 5746 5744 5743 5741 5738 5737 5737 5733 5731 5735 5738 5736 5735 5735 5735 5734 5735
5803 5800 5799 5797 5792 5789 5786 5783 5780 5778 5776 5773 5771 5768 5766 5764 5762 5760 5758 5755 5753 5752 5751 5748 5747 5746 5743 5741 5740 5738 5735 5734 5734 5729 5724 5722 5726 5730 5734 5733 5732 5732 5733
5798 5795 5792 5790 5788 5784 5782 5779 5776 5774 5772 5770 5768 5766 5762 5760 5757 5754 5752 5752 5750 5749 5747 5746 5745 5743 5741 5738 5736 5735 5732 5729 5730 5730 5724 5716 5713 5718 5725 5728 5728 5728 5728
5796 5793 5789 5786 5784 5781 5779 5776 5772 5770 5768 5766 5763 5759 5755 5752 5752 5751 5750 5748 5747 5746 5744 5743 5741 5740 5738 5736 5734 5733 5731 5728 5725 5726 5726 5723 5720 5713 5712 5719 5723 5724 5724
5793 5790 5787 5785 5783 5780 5776 5772 5768 5765 5763 5761 5759 5756 5753 5751 5750 5748 5746 5744 5744 5743 5742 5740 5738 5736 5734 5733 5731 5730 5728 5727 5724 5722 5721 5720 5720 5718 5710 5707 5712 5716 5720
5792 5788 5785 5782 5778 5776 5773 5768 5763 5759 5758 5756 5754 5751 5748 5746 5744 5742 5740 5739 5739 5738 5737 5737 5734 5732 5730 5729 5728 5727 5725 5723 5722 5720 5719 5716 5713 5711 5710 5706 5707 5708 5713
5786 5782 5779 5775 5772 5770 5766 5763 5757 5753 5752 5750 5748 5746 5744 5742 5740 5738 5737 5736 5734 5733 5733 5732 5730 5728 5727 5726 5725 5723 5721 5720 5718 5717 5716 5715 5714 5714 5711 5707 5705 5705 5709
5780 5776 5773 5769 5766 5764 5761 5756 5751 5747 5745 5743 5741 5740 5739 5738 5737 5735 5734 5733 5732 5730 5730 5728 5726 5724 5723 5723 5721 5720 5718 5716 5715 5715 5713 5712 5712 5712 5711 5707 5703 5699 5701
5771 5769 5766 5763 5760 5757 5753 5749 5745 5741 5739 5737 5735 5735 5734 5732 5731 5731 5730 5729 5728 5728 5726 5724 5723 5721 5720 5719 5717 5716 5715 5713 5712 5711 5710 5708 5709 5709 5709 5708 5705 5698 5692
5760 5761 5758 5755 5752 5750 5747 5744 5740 5736 5734 5732 5730 5730 5728 5727 5726 5725 5724 5723 5723 5723 5721 5719 5718 5717 5715 5714 5713 5712 5711 5709 5709 5708 5706 5705 5705 5706 5706 5705 5703 5700 5695
5749 5749 5747 5746 5745 5742 5739 5735 5733 5729 5727 5725 5724 5723 5723 5722 5720 5719 5719 5718 5717 5716 5715 5714 5713 5711 5710 5710 5708 5707 5707 5705 5704 5704 5703 5701 5702 5700 5700 5700 5699 5696 5694
5742 5740 5737 5735 5732 5730 5728 5726 5723 5721 5719 5719 5717 5716 5717 5716 5714 5713 5712 5713 5712 5712 5710 5709 5707 5706 5706 5705 5704 5702 5702 5701 5700 5699 5698 5697 5698 5695 5695 5693 5692 5691 5690
5731 5729 5725 5722 5720 5719 5716 5715 5715 5713 5712 5711 5709 5708 5708 5707 5706 5706 5706 5706 5707 5706 5705 5703 5702 5701 5700 5700 5700 5699 5698 5697 5696 5695 5694 5693 5692 5690 5689 5688 5687 5686 5686
5718 5716 5713 5711 5710 5709 5707 5704 5705 5705 5704 5702 5700 5699 5699 5699 5699 5699 5700 5700 5700 5700 5699 5698 5697 5697 5696 5695 5695 5694 5693 5693 5692 5692 5691 5689 5688 5685 5684 5684 5682 5681 5680
5706 5705 5702 5700 5700 5699 5698 5696 5696 5696 5696 5694 5692 5691 5692 5692 5691 5691 5692 5693 5694 5694 5693 5692 5692 5692 5691 5690 5689 5689 5689 5687 5686 5686 5686 5685 5683 5681 5680 5679 5677 5676 5674
5695 5695 5693 5691 5690 5689 5688 5687 5687 5688 5687 5685 5684 5683 5683 5683 5683 5683 5684 5685 5686 5687 5686 5685 5685 5685 5686 5684 5683 5683 5683 5682 5681 5680 5680 5680 5678 5677 5675 5674 5673 5671 5669
5685 5686 5684 5682 5681 5681 5680 5678 5679 5680 5678 5677 5676 5675 5675 5675 5675 5676 5677 5677 5678 5679 5678 5678 5679 5679 5678 5678 5677 5677 5677 5676 5676 5675 5674 5674 5675 5672 5671 5669 5668 5667 5666
5677 5676 5675 5674 5673 5673 5673 5672 5671 5670 5670 5669 5667 5668 5668 5668 5668 5669 5669 5670 5671 5672 5672 5673 5673 5673 5673 5671 5671 5671 5672 5671 5671 5670 5669 5667 5667 5666 5665 5664 5663 5662 5662
5666 5667 5668 5667 5667 5666 5665 5664 5662 5661 5660 5661 5660 5660 5660 5660 5661 5661 5662 5663 5663 5664 5666 5667 5667 5667 5666 5665 5665 5664 5665 5665 5665 5665 5664 5663 5662 5660 5659 5658 5657 5656 5656
5658 5659 5659 5659 5658 5658 5657 5655 5653 5652 5651 5652 5652 5653 5653 5654 5654 5655 5656 5656 5657 5657 5659 5660 5662 5662 5661 5659 5659 5658 5660 5660 5659 5659 5659 5658 5657 5655 5653 5652 5651 5650 5650
5650 5650 5650 5648 5649 5649 5648 5646 5645 5645 5645 5645 5645 5645 5645 5646 5648 5649 5650 5650 5652 5652 5653 5654 5656 5656 5656 5655 5654 5653 5654 5654 5654 5654 5653 5652 5650 5648 5647 5646 5646 5645 5644
5641 5641 5639 5639 5640 5640 5638 5637 5637 5639 5639 5638 5637 5637 5639 5640 5642 5642 5643 5644 5646 5646 5647 5649 5650 5651 5651 5651 5650 5648 5647 5648 5648 5647 5647 5645 5643 5641 5641 5640 5640 5640 5638
5634 5634 5632 5631 5631 5631 5630 5629 5630 5631 5631 5630 5629 5630 5631 5633 5634 5635 5636 5638 5639 5641 5643 5644 5644 5645 5645 5645 5644 5642 5642 5641 5640 5641 5640 5637 5635 5634 5635 5635 5634 5633 5632
5627 5626 5625 5623 5623 5623 5623 5622 5623 5624 5623 5622 5622 5623 5624 5626 5627 5628 5630 5631 5632 5635 5637 5637 5638 5639 5639 5638 5637 5636 5635 5634 5633 5633 5632 5631 5630 5629 5629 5629 5628 5628 5628
5619 5619 5617 5616 5615 5615 5616 5616 5616 5616 5615 5615 5615 5616 5618 5620 5620 5621 5622 5624 5625 5628 5630 5631 5632 5631 5630 5627 5627 5628 5628 5628 5627 5625 5624 5625 5625 5625 5625 5625 5625 5624 5623
5612 5610 5610 5609 5609 5609 5608 5609 5609 5609 5608 5607 5607 5609 5611 5612 5613 5614 5614 5615 5617 5618 5620 5622 5622 5622 5620 5619 5618 5619 5619 5618 5617 5616 5618 5619 5620 5619 5619 5619 5619 5618 5617